Regional Weather Roundup
Issued by NWS

Home | Current Version | Previous Version | Graphics & Text | Print | Product List | Glossary Off
Versions: 1 2 3 4 5 6 7 8 9 10 11 12 13 14 15 16 17 18 19 20 21 22 23 24 25 26 27 28 29 30 31 32 33 34 35 36 37 38 39 40 41 42 43 44 45 46 47 48 49 50

820
ASUS43 KDMX 240906
RWRIA

WEATHER ROUNDUP FOR IOWA
NATIONAL WEATHER SERVICE DES MOINES IA
400 AM CDT MON APR 24 2017

NOTE: "FAIR" INDICATES FEW OR NO CLOUDS BELOW 12,000 FEET WITH NO
SIGNIFICANT WEATHER AND/OR OBSTRUCTIONS TO VISIBILITY.

* - THESE STATIONS ARE NOT NWS STATIONS...THUS NOT UNDER NWS
QUALITY CONTROL.  THEY ALSO DO NOT REPORT WEATHER SUCH
AS PRECIPITATION OR FOG.

IAZ001>003-012>014-020>022-031>034-043>046-241000-
   NORTHWEST IOWA

CITY           SKY/WX    TMP DP  RH WIND       PRES   REMARKS
CARROLL *      MOCLDY    48  37  66 S9        29.84F
DENISON *      MOCLDY    50  36  57 S9        29.85S
LE MARS *      CLOUDY    54  36  50 S13       29.77F
ORANGE CITY *  CLOUDY    52  36  54 S10       29.76F
SHELDON *      CLOUDY    50  34  53 S14       29.76S
SIOUX CITY     MOCLDY    53  36  52 SE12      29.77F
SPENCER        CLOUDY    49  35  58 MISG      29.80F
STORM LAKE *   CLOUDY    46  34  61 S12       29.81F
$$

IAZ055>058-069>071-079>083-090>094-241000-
   SOUTHWEST IOWA

CITY           SKY/WX    TMP DP  RH WIND       PRES   REMARKS
ATLANTIC *     CLOUDY    52  36  54 S10       29.86S
AUDUBON *      MOCLDY    52  36  54 S7        29.86F
CLARINDA *     CLOUDY    39  36  87 S3        29.90F
COUNCIL BLFS * PTCLDY    48  37  66 S9        29.84S
CRESTON *      PTCLDY    46  34  61 S10       29.91S
HARLAN  *      MOCLDY    52  36  54 S10       29.87S
LAMONI         CLOUDY    50  32  50 S8        29.91F
RED OAK *      CLOUDY    48  37  66 S8        29.87S
SHENANDOAH *   CLOUDY    48  37  66 SE8       29.87F
$$

IAZ047>049-059>061-072>074-084-241000-
   CENTRAL IOWA

CITY           SKY/WX    TMP DP  RH WIND       PRES   REMARKS
AMES           CLOUDY    44  36  73 S7        29.89F
ANKENY *       CLOUDY    45  36  70 CALM      29.91F
BOONE *        CLOUDY    46  34  61 S6        29.88F
CHARITON *     CLOUDY    45  36  70 S6        29.92S
DES MOINES     MOCLDY    50  33  52 S8        29.90F
GRINNELL*      CLOUDY    46  32  59 S8        29.94F HAZE
KNOXVILLE *    CLOUDY    50  32  50 S5        29.91F
MARSHALLTOWN   CLOUDY    49  33  54 S7        29.91F
NEWTON *       CLOUDY    45  34  65 S7        29.91F
PELLA *        CLOUDY    48  33  55 S5        29.94S
PERRY *          N/A     45  33  64 SE9       29.88F
$$

IAZ004>006-015-016-023>025-035-036-241000-
   NORTH CENTRAL IOWA

CITY           SKY/WX    TMP DP  RH WIND       PRES   REMARKS
ALGONA *       CLOUDY    52  34  50 S17G23    29.84F
CLARION *      CLOUDY    48  34  57 S13       29.86F
ESTHERVILLE    CLOUDY    47  35  63 S14       29.80F
FORT DODGE *   CLOUDY    54  30  40 S10       29.86F
MASON CITY     CLEAR     43  35  73 S10       29.89F
FOREST CITY *    N/A     43  36  75 S8        29.86F
WEBSTER CITY * CLOUDY    46  34  61 SE12      29.85F
IOWA FALLS *     N/A     47  35  63 S7        29.91F
$$

IAZ007>011-017>019-026>030-037>042-050>054-066-241000-
   NORTHEAST IOWA

CITY           SKY/WX    TMP DP  RH WIND       PRES   REMARKS
CEDAR RAPIDS   CLOUDY    46  32  58 S3        29.94S
CHARLES CITY * CLEAR     48  32  53 S9        29.91S
CLINTON *      CLEAR     46  34  62 SE9       29.98S
DECORAH *      CLEAR     50  32  50 S7        29.92S
DUBUQUE        CLEAR     48  32  53 S6        29.96F
MONTICELLO *   CLEAR     43  34  70 CALM      29.95S
OELWEIN *      CLOUDY    46  34  61 SE7       29.93S
WATERLOO       CLEAR     50  31  48 S6        29.91F
$$

IAZ064-065-067-068-078-241000-
   EAST CENTRAL IOWA

CITY           SKY/WX    TMP DP  RH WIND       PRES   REMARKS
DAVENPORT      CLEAR     45  34  65 SE8       29.97S
IOWA CITY      CLEAR     44  37  76 CALM      29.97R
MT. PLEASANT * CLOUDY    46  31  55 SE6       29.95S
MUSCATINE *    CLOUDY    43  36  75 CALM      29.96S
QUAD CITIES    CLEAR     44  34  67 CALM      29.97S
$$

IAZ062-063-075>077-085>089-095>099-241000-
   SOUTHEAST IOWA

CITY           SKY/WX    TMP DP  RH WIND       PRES   REMARKS
BURLINGTON     PTCLDY    47  36  65 SE3       29.96S
FAIRFIELD *    CLOUDY    52  27  37 S7        29.94S
FORT MADISON * CLOUDY    54  30  40 S3        29.97R
KEOKUK *       CLOUDY    46  43  87 CALM      29.95S
OSKALOOSA *      N/A     46  32  56 S6        29.94S
CENTERVILLE *    N/A     45  32  61 CALM      29.95S
OTTUMWA        CLOUDY    48  31  51 S7        29.94S
WASHINGTON *   CLOUDY    46  32  57 S7        29.96S
$$

ABBREVIATIONS USED IN REMARKS
   TC - TEMPERATURES IN CELSIUS
  WCI - WIND CHILL INDEX
   HX - HEAT INDEX
  VSB - VISIBILITY
$$





USA.gov is the U.S. government's official web portal to all federal, state and local government web resources and services.